Home > Weather > Virginia Beach > Past weeks

Flag for U.S.A. Weather for the Past 2 Weeks in Virginia Beach, Virginia, U.S.A.

Now
29 °F

Clear.


Feels Like: 25 °F
Forecast: 25 / 35 °F
Wind: 3 mph from Northwest

Location: Virginia Beach - Oceana

Current Time: Feb 11, 2016 at 9:33:45 PM

Latest Report: Feb 11, 2016 at 8:56 PM


Visibility: 10 mi

Pressure: 30.27 "Hg

Humidity: 45%

Dew point: 10 °F

Location of Virginia BeachLocation

Historic Weather in Virginia Beach — Graph

°F

Virginia Beach Temperature Yesterday

Maximum temperature yesterday: 47 °F (at 1:56 PM)
Minimum temperature yesterday: 31 °F (at 4:56 AM)
Average temperature yesterday: 39 °F

High & Low Weather Summary for the Past Weeks

 TemperatureHumidityPressure
High77 °F (Feb 3, 11:56 AM)87% (Feb 3, 8:56 PM)30.47 "Hg (Feb 3, 8:56 PM)
Low28 °F (Jan 30, 5:56 AM)22% (Feb 11, 11:56 AM)29.54 "Hg (Feb 9, 5:56 AM)
Average47 °F59%29.99 "Hg
* Reported Jan 27 7:56 PM — Feb 11 7:56 PM, Virginia Beach, Weather by CustomWeather, © 2016

Note: Actual official high and low records may vary slightly from our data, if they occured in-between our weather recording intervals... More about our weather records

Advertising

Virginia Beach Weather History for the Previous 24 Hours

 ConditionsComfort  
Time TempWeatherWind HumidityBarometerVisibility
7:56 PM
Thu, Feb 11
33 °FClear.5 mph36%30.25 "Hg10 mi
6:56 PM33 °FClear.3 mph32%30.23 "Hg10 mi
5:56 PM34 °FClear.5 mph29%30.19 "Hg10 mi
4:56 PM38 °FSunny.8 mph24%30.16 "Hg10 mi
3:56 PM39 °FPassing clouds.16 mph23%30.14 "Hg10 mi
2:56 PM40 °FPassing clouds.15 mph22%30.13 "Hg10 mi
1:56 PM39 °FSunny.18 mph23%30.12 "Hg10 mi
12:56 PM38 °FPassing clouds.23 mph24%30.12 "Hg10 mi
11:56 AM37 °FPassing clouds.20 mph22%30.14 "Hg10 mi
10:56 AM35 °FSunny.20 mph25%30.15 "Hg10 mi
9:56 AM33 °FScattered clouds.21 mph28%30.16 "Hg10 mi
8:56 AM31 °FPassing clouds.20 mph33%30.15 "Hg10 mi
7:56 AM29 °FSunny.16 mph38%30.14 "Hg10 mi
6:56 AM29 °FClear.15 mph38%30.11 "Hg10 mi
5:56 AM29 °FClear.13 mph38%30.08 "Hg10 mi
4:56 AM29 °FClear.10 mph39%30.05 "Hg10 mi
3:56 AM30 °FClear.12 mph38%30.02 "Hg10 mi
2:56 AM31 °FPassing clouds.12 mph38%30.01 "Hg10 mi
1:56 AM32 °FPassing clouds.15 mph36%29.99 "Hg10 mi
12:56 AM33 °FClear.14 mph35%29.98 "Hg10 mi
11:56 PM
Wed, Feb 10
34 °FClear.18 mph34%29.96 "Hg10 mi
10:56 PM35 °FPassing clouds.16 mph34%29.95 "Hg10 mi
9:56 PM38 °FOvercast.17 mph31%29.93 "Hg10 mi
Weather by CustomWeather, © 2016

See weather overviewHow to use our weather pages